Regional Weather Roundup
Issued by NWS

Home | Current Version | Previous Version | Text Only | Print | Product List | Glossary Off
Versions: 1 2 3 4 5 6 7 8 9 10 11 12 13 14 15 16 17 18 19 20 21 22 23 24 25 26 27 28 29 30 31 32 33 34 35 36 37 38 39 40 41 42 43 44 45 46 47 48 49 50

000
ASUS43 KFSD 182202
RWRSD

WEATHER ROUNDUP FOR SOUTH DAKOTA
NATIONAL WEATHER SERVICE SIOUX FALLS SD
400 PM CST THU JAN 18 2018

NOTE: "FAIR" INDICATES FEW OR NO CLOUDS BELOW 12,000 FEET WITH NO
SIGNIFICANT WEATHER AND/OR OBSTRUCTIONS TO VISIBILITY.


SDZ001>005-009-010-012>017-182300-
NORTHWEST AND NORTH CENTRAL SOUTH DAKOTA

CITY           SKY/WX    TMP DP  RH WIND       PRES   REMARKS
BUFFALO          N/A     45  27  49 W14       29.67S
FAITH            N/A     42  29  59 S9        29.75F
MOBRIDGE       CLOUDY    40  29  64 SE7       29.72F
$$

SDZ012>016-024>037-041>051-057-063-072>074-182300-
SOUTHWEST AND SOUTH CENTRAL SOUTH DAKOTA

CITY           SKY/WX    TMP DP  RH WIND       PRES   REMARKS
RAPID CTY ARPT CLOUDY    62  30  29 SE6       29.78F
PIERRE         CLOUDY    43  28  55 CALM      29.78
CUSTER         CLOUDY    48  18  30 W8        29.85F
ELLSWORTH AFB  CLOUDY    53  26  35 SE5       29.77F
PHILIP         PTSUNNY   51  29  42 W7        29.78S
PINE RIDGE     PTSUNNY   51  30  44 W7        29.85S
SPEARFISH        N/A     55  25  30 NW5       29.78S
WINNER         FAIR      46  31  55 SW10      29.81F
$$

SDZ004>011-016>023-039-040-182300-
NORTHEAST SOUTH DAKOTA

CITY           SKY/WX    TMP DP  RH WIND       PRES   REMARKS
ABERDEEN       PTSUNNY   40  30  67 S6        29.76F
WATERTOWN      CLOUDY    37  28  70 SW8       29.76F
BROOKINGS      CLOUDY    37  29  72 SW8       29.79F
SISSETON         N/A     40  26  57 SW7       29.74F
$$

SDZ017-020-022-023-036>040-048>070-182300-
SOUTHEAST SOUTH DAKOTA

CITY           SKY/WX    TMP DP  RH WIND       PRES   REMARKS
SIOUX FALLS    CLOUDY    39  30  70 W3        29.83R
HURON          CLOUDY    39  30  70 SE5       29.80F
CHAMBERLAIN    CLOUDY    44  32  64 CALM      29.81S
MITCHELL       CLOUDY    41  31  67 SW5       29.83R
YANKTON        CLOUDY    43  28  55 SW5       29.84F
$$

ABBREVIATIONS USED IN REMARKS
   TC - TEMPERATURE IN CELSIUS
  WCI - WIND CHILL INDEX
   HX - HEAT INDEX
  VSB - VISIBILITY




USA.gov is the U.S. government's official web portal to all federal, state and local government web resources and services.